| time (UTC) | temp C | wind direction | speed KPH | gust KPH | rain 1hr cm | rain 24hr cm | rain mn cm | humidity % | barometer mb |
| 20260505111541 | 15 | 116 | 3.2 | 11.3 | 0.03 | 0.25 | 0.25 | 90 | 1005.6 |
| 20260505101559 | 15 | 115 | 3.2 | 14.5 | 0.03 | 0.23 | 0.23 | 91 | 1006.1 |
| 20260505100059 | 15 | 67 | 0.0 | 4.8 | 0.03 | 0.23 | 0.23 | 90 | 1005.7 |
| 20260505094540 | 15 | 0 | 0.0 | 3.2 | 0.03 | 0.23 | 0.23 | 89 | 1005.3 |
| 20260505093059 | 16 | 0 | 0.0 | 6.4 | 0.08 | 0.20 | 0.20 | 83 | 1004.8 |
| 20260505091543 | 16 | 317 | 3.2 | 14.5 | 0.10 | 0.20 | 0.20 | 84 | 1004.7 |
| 20260505090042 | 16 | 232 | 14.5 | 27.4 | 0.13 | 0.20 | 0.20 | 88 | 1003.6 |
| 20260505084543 | 16 | 293 | 11.3 | 19.3 | 0.20 | 0.20 | 0.20 | 92 | 1004.6 |
| 20260505083041 | 16 | 304 | 3.2 | 14.5 | 0.13 | 0.13 | 0.13 | 92 | 1006.1 |
| 20260505081548 | 16 | 0 | 1.6 | 16.1 | 0.10 | 0.10 | 0.10 | 90 | 1006.1 |
| 20260505080057 | 16 | 28 | 1.6 | 12.9 | 0.05 | 0.05 | 0.05 | 87 | 1005.7 |
| 20260505074543 | 17 | 338 | 8.0 | 25.7 | 0.00 | 0.00 | 0.00 | 80 | 1005.6 |
| 20260505073043 | 18 | 18 | 8.0 | 19.3 | 0.00 | 0.00 | 0.00 | 77 | 1005.9 |
| 20260505071549 | 18 | 5 | 4.8 | 16.1 | 0.00 | 0.00 | 0.00 | 74 | 1005.7 |
| 20260505070109 | 18 | 272 | 3.2 | 14.5 | 0.00 | 0.00 | 0.00 | 74 | 1005.5 |
| 20260505064544 | 18 | 309 | 4.8 | 12.9 | 0.00 | 0.00 | 0.00 | 74 | 1005.5 |
| 20260505063047 | 18 | 296 | 8.0 | 14.5 | 0.00 | 0.00 | 0.00 | 73 | 1006.0 |
| 20260505061544 | 18 | 318 | 3.2 | 9.7 | 0.00 | 0.00 | 0.00 | 74 | 1006.1 |
| 20260505060043 | 18 | 291 | 3.2 | 12.9 | 0.00 | 0.00 | 0.00 | 74 | 1006.2 |
| 20260505054547 | 18 | 275 | 3.2 | 11.3 | 0.00 | 0.00 | 0.00 | 73 | 1006.2 |
| 20260505053047 | 18 | 292 | 4.8 | 14.5 | 0.00 | 0.00 | 0.00 | 73 | 1006.1 |
| 20260505051543 | 18 | 263 | 6.4 | 16.1 | 0.00 | 0.00 | 0.00 | 73 | 1006.1 |
| 20260505041546 | 19 | 288 | 4.8 | 12.9 | 0.00 | 0.00 | 0.00 | 70 | 1006.7 |
| 20260505040045 | 19 | 263 | 3.2 | 8.0 | 0.00 | 0.00 | 0.00 | 70 | 1007.0 |
| 20260505034546 | 19 | 329 | 1.6 | 8.0 | 0.00 | 0.00 | 0.00 | 70 | 1007.1 |
| 20260505033041 | 20 | 298 | 1.6 | 4.8 | 0.00 | 0.00 | 0.00 | 69 | 1007.2 |
| 20260505031547 | 20 | 302 | 0.0 | 6.4 | 0.00 | 0.00 | 0.00 | 67 | 1007.2 |
| 20260505030042 | 20 | 324 | 1.6 | 8.0 | 0.00 | 0.00 | 0.00 | 67 | 1007.2 |
| 20260505024544 | 20 | 329 | 4.8 | 16.1 | 0.00 | 0.00 | 0.00 | 66 | 1007.1 |
| 20260505023050 | 21 | 30 | 3.2 | 12.9 | 0.00 | 0.00 | 0.00 | 66 | 1006.8 |
| 20260505021544 | 21 | 303 | 4.8 | 16.1 | 0.00 | 0.00 | 0.00 | 65 | 1006.5 |
| 20260505020040 | 21 | 325 | 1.6 | 12.9 | 0.00 | 0.00 | 0.00 | 65 | 1006.4 |
| 20260505014542 | 21 | 313 | 0.0 | 4.8 | 0.00 | 0.00 | 0.00 | 64 | 1006.2 |
| 20260505013046 | 21 | 0 | 0.0 | 6.4 | 0.00 | 0.00 | 0.00 | 62 | 1005.9 |
| 20260505011544 | 22 | 0 | 1.6 | 6.4 | 0.00 | 0.00 | 0.00 | 61 | 1005.8 |
| 20260505010103 | 22 | 300 | 1.6 | 11.3 | 0.00 | 0.00 | 0.00 | 59 | 1005.5 |
| 20260505004541 | 22 | 311 | 4.8 | 14.5 | 0.00 | 0.00 | 0.00 | 58 | 1005.5 |
| 20260505003045 | 23 | 360 | 1.6 | 9.7 | 0.00 | 0.00 | 0.00 | 57 | 1005.5 |
| 20260505001541 | 23 | 0 | 0.0 | 6.4 | 0.00 | 0.00 | 0.00 | 55 | 1005.3 |
| 20260505000045 | 24 | 350 | 1.6 | 14.5 | 0.00 | 0.00 | 0.00 | 53 | 1005.4 |
| 20260504234544 | 24 | 328 | 4.8 | 17.7 | 0.00 | 0.00 | 0.00 | 51 | 1005.4 |
| 20260504233042 | 25 | 74 | 3.2 | 17.7 | 0.00 | 0.00 | 0.00 | 52 | 1005.2 |
| 20260504231545 | 25 | 335 | 8.0 | 17.7 | 0.00 | 0.00 | 0.00 | 51 | 1005.2 |
| 20260504230045 | 25 | 360 | 9.7 | 22.5 | 0.00 | 0.00 | 0.00 | 49 | 1005.3 |
| 20260504224540 | 26 | 352 | 8.0 | 22.5 | 0.00 | 0.00 | 0.00 | 50 | 1005.2 |
| 20260504223045 | 26 | 302 | 11.3 | 22.5 | 0.00 | 0.00 | 0.00 | 50 | 1005.4 |
| 20260504221556 | 26 | 340 | 9.7 | 22.5 | 0.00 | 0.00 | 0.00 | 50 | 1005.3 |
| 20260504220044 | 26 | 296 | 9.7 | 24.1 | 0.00 | 0.00 | 0.00 | 50 | 1005.4 |
| 20260504214538 | 26 | 330 | 6.4 | 25.7 | 0.00 | 0.00 | 0.00 | 51 | 1005.4 |
| 20260504213057 | 25 | 336 | 11.3 | 24.1 | 0.00 | 0.00 | 0.00 | 51 | 1005.6 |
| 20260504211546 | 26 | 318 | 8.0 | 20.9 | 0.00 | 0.00 | 0.00 | 51 | 1005.6 |
| 20260504210038 | 26 | 306 | 6.4 | 19.3 | 0.00 | 0.00 | 0.00 | 50 | 1005.9 |
| 20260504204542 | 26 | 322 | 9.7 | 27.4 | 0.00 | 0.00 | 0.00 | 50 | 1006.1 |
| 20260504203049 | 26 | 80 | 11.3 | 25.7 | 0.00 | 0.00 | 0.00 | 50 | 1006.2 |
| 20260504201541 | 26 | 325 | 9.7 | 24.1 | 0.00 | 0.00 | 0.00 | 50 | 1006.5 |
| 20260504200039 | 26 | 338 | 11.3 | 25.7 | 0.00 | 0.00 | 0.00 | 51 | 1006.5 |
| 20260504194544 | 26 | 337 | 14.5 | 29.0 | 0.00 | 0.00 | 0.00 | 50 | 1006.7 |
| 20260504193039 | 26 | 5 | 9.7 | 33.8 | 0.00 | 0.00 | 0.00 | 50 | 1006.8 |
| 20260504191543 | 26 | 9 | 12.9 | 37.0 | 0.00 | 0.00 | 0.00 | 52 | 1007.0 |
| 20260504190044 | 26 | 9 | 11.3 | 29.0 | 0.00 | 0.00 | 0.00 | 50 | 1006.9 |
| 20260504184542 | 25 | 345 | 11.3 | 33.8 | 0.00 | 0.00 | 0.00 | 52 | 1006.9 |
| 20260504183043 | 25 | 345 | 12.9 | 27.4 | 0.00 | 0.00 | 0.00 | 52 | 1006.9 |
| 20260504181543 | 25 | 42 | 12.9 | 25.7 | 0.00 | 0.00 | 0.00 | 50 | 1007.1 |
| 20260504180047 | 25 | 11 | 14.5 | 33.8 | 0.00 | 0.00 | 0.00 | 53 | 1007.1 |
| 20260504174546 | 25 | 314 | 9.7 | 24.1 | 0.00 | 0.00 | 0.00 | 53 | 1007.2 |
| 20260504173042 | 25 | 40 | 12.9 | 37.0 | 0.00 | 0.00 | 0.00 | 51 | 1007.4 |
| 20260504171544 | 25 | 360 | 8.0 | 29.0 | 0.00 | 0.00 | 0.00 | 54 | 1007.4 |